Shelton, WA
on Thursday, February 7, 2013

Thursday
Previous Day Next Day
Daily Summary
 ActualAverage (KOLM)Record (KOLM)
Temperature
Mean Temperature °F 41°F  
Max Temperature 48°F 48°F 63°F (1954)
Min Temperature 28°F 33°F 7°F (1989)
Degree Days
Heating Degree Days 27 24  
Month to date heating degree days 169  
Since 1 July heating degree days 3220  
Cooling Degree Days 0 0  
Month to date cooling degree days 0  
Year to date cooling degree days 0  
Moisture
Dew Point 35°F   
Average Humidity 88    
Maximum Humidity 100    
Minimum Humidity 58    
Precipitation
Precipitation 0.04 in 0.21 in 1.98 in (1996)
Month to date precipitation 1.43  
Year to date precipitation 9.27  
Wind
Wind Speed 6 mph   
Max Wind Speed 22 mph   
Max Gust Speed 29 mph   
Visibility 10 miles   
Events Rain   

Key: T is trace of precipitation, MM is missing value
Source: NWS Daily Summary
Time(PST)TemperatureDew PointHumidity Pressure Visibility Wind DirectionWind SpeedGust SpeedPrecipitationEvents Conditions
12:06 AM 41.0°F 39.2°F 93% 29.79 in 10.0 miles SSW 4.6 mph - 0.01 in Rain Light Rain
12:53 AM 42.1°F 37.9°F 85% 29.82 in 10.0 miles SSW 8.1 mph - 0.01 in   Overcast
1:40 AM 41.0°F 37.4°F 87% 29.82 in 10.0 miles South 9.2 mph - N/A   Scattered Clouds
1:53 AM 41.0°F 37.0°F 86% 29.84 in 10.0 miles South 8.1 mph 18.4 mph N/A   Mostly Cloudy
2:53 AM 41.0°F 37.0°F 86% 29.86 in 10.0 miles SSW 21.9 mph 28.8 mph N/A   Overcast
3:53 AM 39.9°F 36.0°F 86% 29.88 in 10.0 miles SSW 13.8 mph - 0.00 in   Scattered Clouds
4:44 AM 39.2°F 37.4°F 93% 29.91 in 10.0 miles SSW 10.4 mph - 0.00 in   Overcast
4:53 AM 39.0°F 37.0°F 93% 29.92 in 10.0 miles South 6.9 mph - 0.00 in   Overcast
5:23 AM 37.4°F 35.6°F 93% 29.91 in 10.0 miles South 6.9 mph - N/A   Partly Cloudy
5:50 AM 37.4°F 37.4°F 100% 29.93 in 10.0 miles SSW 10.4 mph - 0.01 in Rain Rain
5:53 AM 39.0°F 36.0°F 89% 29.94 in 10.0 miles SSW 8.1 mph - 0.02 in Rain Light Rain
6:23 AM 37.4°F 35.6°F 93% 29.93 in 10.0 miles South 6.9 mph - 0.01 in   Partly Cloudy
6:53 AM 37.0°F 36.0°F 96% 29.95 in 10.0 miles South 8.1 mph - 0.01 in   Mostly Cloudy
7:53 AM 35.1°F 35.1°F 100% 29.97 in 10.0 miles ESE 3.5 mph - 0.00 in   Mostly Cloudy
8:53 AM 37.0°F 36.0°F 96% 29.99 in 10.0 miles South 3.5 mph - N/A   Mostly Cloudy
9:53 AM 39.0°F 37.0°F 93% 30.01 in 10.0 miles Calm Calm - 0.00 in   Mostly Cloudy
10:34 AM 41.0°F 37.4°F 87% 30.00 in 10.0 miles Calm Calm - 0.00 in Rain Light Rain
10:53 AM 41.0°F 37.9°F 89% 30.02 in 10.0 miles Calm Calm - 0.00 in   Overcast
11:53 AM 44.1°F 37.0°F 76% 30.02 in 10.0 miles Calm Calm - N/A   Partly Cloudy
12:53 PM 44.1°F 37.0°F 76% 30.02 in 10.0 miles Calm Calm - N/A   Mostly Cloudy
1:53 PM 45.0°F 35.1°F 68% 30.02 in 10.0 miles Variable 3.5 mph - N/A   Mostly Cloudy
2:53 PM 48.0°F 34.0°F 58% 30.02 in 10.0 miles Calm Calm - N/A   Clear
3:53 PM 45.0°F 33.1°F 63% 30.03 in 10.0 miles Calm Calm - N/A   Clear
4:53 PM 41.0°F 35.1°F 79% 30.05 in 10.0 miles Calm Calm - N/A   Clear
5:53 PM 37.9°F 36.0°F 93% 30.07 in 10.0 miles Calm Calm - N/A   Clear
6:53 PM 35.1°F 34.0°F 96% 30.09 in 10.0 miles Calm Calm - N/A   Clear
7:53 PM 30.0°F 30.0°F 100% 30.12 in 10.0 miles Calm Calm - N/A   Clear
8:53 PM 28.9°F 28.0°F 96% 30.14 in 10.0 miles WSW 3.5 mph - N/A   Clear
9:53 PM 28.0°F 27.0°F 96% 30.16 in 10.0 miles Calm Calm - N/A   Clear
10:53 PM 28.9°F 28.0°F 96% 30.17 in 10.0 miles Calm Calm - N/A   Clear
11:53 PM 28.9°F 27.0°F 92% 30.19 in 10.0 miles Calm Calm - N/A   Clear
Moon Phase
Feb. 07 Feb. 10 Feb. 17 Feb. 25 Mar. 04
Sunrise:07:29 AM (PST) Moon Rise:05:19 AM (PST)2/7
Sunset:05:24 PM (PST) Moon Set:02:50 PM (PST)2/7

Copyright © 2014 The Weather Underground, Inc.